Regional Weather Roundup
Issued by NWS

Home | Current Version | Previous Version | Text Only | Print | Product List | Glossary On
Versions: 1 2 3 4 5 6 7 8 9 10 11 12 13 14 15 16 17 18 19 20 21 22 23 24 25 26 27 28 29 30 31 32 33 34 35 36 37 38 39 40 41 42 43 44 45 46 47 48 49 50
737
ASUS44 KLIX 190713
RWRLA
LOUISIANA WEATHER ROUNDUP
NATIONAL WEATHER SERVICE NEW ORLEANS LA
200 AM CDT SAT AUG 19 2017

NOTE: "FAIR" INDICATES FEW OR NO CLOUDS BELOW 12,000 FEET WITH NO
      SIGNIFICANT WEATHER AND/OR OBSTRUCTIONS TO VISIBILITY.
      SKY/WX - SKY CONDITION AND SIGNIFICANT WEATHER.
      TMP - AIR TEMPERATURE.    DP   - DEWPOINT TEMPERATURE.
      RH  - RELATIVE HUMIDITY.  PRES - PRESSURE.
      HX  - HEAT INDEX.         WCI  - WIND CHILL INDEX.

*  THESE STATIONS ARE NOT NWS OR FAA STATIONS AND ARE NOT UNDER
   NWS QUALITY CONTROL.

LAZ040-048-061>063-065-066-069-190800-
SOUTHEAST LOUISIANA

CITY           SKY/WX    TMP DP  RH WIND       PRES   REMARKS
N.O. INTL ARPT PTCLDY    81  78  91 SW6       29.99F
N.O. LAKEFRONT CLEAR     85  80  85 W13       29.99F HX  99
N.O. DOWNTOWN* FAIR      85  77  77 VRB3      30.00F HX  95
RESERVE*       FAIR      82  78  89 CALM      29.99F
SLIDELL        CLEAR     78  75  90 CALM      29.98F
BATON ROUGE    PTCLDY    80  76  87 CALM      29.99F
BOOTHVILLE     PTCLDY    85  78  80 SW5       30.00F HX  96
BELLE CHASSE   NOT AVBL
BOGALUSA*      FAIR      77  73  88 CALM      30.00F
GALLIANO*      SUNNY     79  76  90 CALM      30.00S
NEW ROADS*     FAIR      78  77  96 CALM      30.00S
GONZALES*      FAIR      79  77  92 CALM      29.99F
HAMMOND*       CLEAR     79  73  83 CALM      29.99F
HOUMA*         NOT AVBL
PORT FOURCHON* MOSUNNY   86  79  79 SW6       30.00F HX  99

$$

LAZ041-044-053-054-190800-
SOUTHWEST LOUISIANA

CITY           SKY/WX    TMP DP  RH WIND       PRES   REMARKS
LAKE CHARLES   CLEAR     82  78  88 SW3       30.00F
LAFAYETTE      CLEAR     82  79  90 W5        30.00F
PATTERSON      CLEAR     78  78 100 CALM      30.00F
SALT POINT       N/A     86  76  71 CALM      29.98F HX  96
NEW IBERIA     CLEAR     79  75  87 CALM      30.00F
CHENAULT AIRPK CLEAR     82  78  85 SW6       30.00F

$$

LAZ027-028-190800-
CENTRAL LOUISIANA

CITY           SKY/WX    TMP DP  RH WIND       PRES   REMARKS
FORT POLK      CLEAR     80  77  91 SW5       30.00F
ALEXANDRIA INT   N/A    N/A N/A N/A MISG      29.98F
ALEXANDRIA     CLEAR     76  76 100 CALM      30.00S FOG

$$

LAZ001-002-190800-
NORTHWEST LOUISIANA

CITY           SKY/WX    TMP DP  RH WIND       PRES   REMARKS
SHREVEPORT     PTCLDY    81  77  88 CALM      29.98F
BARKSDALE AFB  CLEAR     79  78  95 CALM      29.98S
DTN SHREVEPORT CLEAR     81  75  82 CALM      29.99S

$$

LAZ014-016-190800-
NORTHEAST LOUISIANA

CITY           SKY/WX    TMP DP  RH WIND       PRES   REMARKS
MONROE         CLEAR     80  75  84 S3        29.99R
TALLULAH       CLEAR     78  77  96 CALM      29.99R

$$





USA.gov is the U.S. government's official web portal to all federal, state and local government web resources and services.